Location: Conflandey
(47.7287°N, 6.0456°E)
Time: 03:57:16
(UTC+00:00)

Cosmos 1943 Rocket - Pass Details

Date: 24 October 2021
Orbit: 811 x 844 km, 71.0° (Epoch: 05 December)

Event Time Altitude Azimuth Distance (km) Brightness Sun altitude
Rises 18:41:45 0° 337° (NNW) 3,415 5.8 -22.6°
Reaches altitude 10° 18:46:27 10° 12° (NNE) 2,476 4.6 -23.4°
Enters shadow 18:47:43 11° 25° (NNE) 2,400 4.4 -23.6°
